Accueil
METAR-TAF:

METAR-TAF

Aéroports :

Prato Nevoso, Italie

Monte Malanotte

latitude: 44-15N, longitude: 007-48E, altitude: 1741 m

Observation

Le bulletin a été fait il y a 24 minutes, à 09:55 UTC
Vent 7 kt de ouest, variant entre sud/sud-ouest et nord/nord-ouest
Température 0°C
Humidité 86%
Pression 1011 hPa
Visibilité: 1800 m
Ciel couvert à une hauteur de 4000 ft
neige faible, brume

METAR: LIMY 240955Z 26007KT 210V340 1800 -SN BR OVC040 M00/M02 Q1011 RMK OVC VAL FOSCHIA VIS MIN 1800

Heure: 11:19 (10:19 UTC)


TAF: absent

Observations et prévisions météorologiques de plus de 4000 aéroports (messages METAR et TAF).

Les stations disponibles sont représentées par des disques jaunes et rouges sur la carte.

Passer la souris dessus pour voir le nom de la station.

Cliquer dessus pour voir les observations et prévisions météorologiques.

Pour changer de carte: cliquez sur les boutons verts avec une croix noire pour zoomer, sur le bouton vert avec un tiret pour effectuer un zoom arrière, ou sur les flèches vertes pour les cartes adjacentes.


METAR-TAF: